Change the Weather History Date:

Tuesday, March 6, 2012

  Actual Average Record
Temperature  
Mean Temperature 50 °F -  
Max Temperature 66 °F 31 °F 71 °F (2005)
Min Temperature 35 °F 17 °F 3 °F (2003)
Degree Days  
Heating Degree Days 14    
Moisture  
Dew Point 34 °F    
Average Humidity 60    
Maximum Humidity 81    
Minimum Humidity 42    
Precipitation  
Precipitation 0.00 in - - ()
Sea Level Pressure  
Sea Level Pressure 29.58 in    
Wind  
Wind Speed 10 mph (South)    
Max Wind Speed 17 mph    
Max Gust Speed 21 mph    
Visibility 10 miles    
Events      
Averages and records for this station are not official NWS values.
T = Trace of Precipitation, MM = Missing Value Source: NWS Daily Summary

Daily Weather History Graph

Daily Weather History Graph

Search for Another Location

Airport or City:

Trip Planner

Search our weather history database for the weather conditions in past years. The results will help you decide how hot, cold, wet, or windy it might be!

Date:

Astronomy

Mar. 06, 2012 Rise Set
Actual Time 6:50 AM CST 6:20 PM CST
Civil Twilight 6:22 AM CST 6:48 PM CST
Nautical Twilight 5:49 AM CST 7:21 PM CST
Astronomical Twilight 5:16 AM CST 7:54 PM CST
Moon 4:46 PM CST (3/6) 5:29 AM CST (3/6)
Length of Visible Light 12h 26m
Length of Day
11h 29m
Waxing Gibbous, 96% of the Moon is Illuminated
Mar 6
Waxing Gibbous
Mar 8
Full
Mar 14
Last Quarter
Mar 22
New
Mar 30
First Quarter

Hourly Weather History & Observations

Time (CST) Temp. Windchill Dew Point Humidity Pressure Visibility Wind Dir Wind Speed Gust Speed Precip Events Conditions
12:15 AM 37.4 °F 30.8 °F 24.8 °F 60% 29.72 in 10.0 mi South 9.2 mph - N/A   Clear
12:35 AM 37.4 °F 30.8 °F 24.8 °F 60% 29.71 in 10.0 mi South 9.2 mph - N/A   Clear
12:55 AM 37.4 °F 30.8 °F 24.8 °F 60% 29.70 in 10.0 mi South 9.2 mph - N/A   Clear
1:15 AM 39.2 °F 32.5 °F 26.6 °F 61% 29.69 in 10.0 mi South 10.4 mph - N/A   Clear
1:35 AM 39.2 °F 33.6 °F 26.6 °F 61% 29.68 in 10.0 mi SSE 8.1 mph - N/A   Clear
1:55 AM 39.2 °F 33.0 °F 26.6 °F 61% 29.66 in 10.0 mi SSE 9.2 mph - N/A   Clear
2:15 AM 37.4 °F 31.4 °F 26.6 °F 65% 29.65 in 10.0 mi SSE 8.1 mph - N/A   Clear
2:35 AM 37.4 °F 30.8 °F 24.8 °F 60% 29.63 in 10.0 mi SSE 9.2 mph - N/A   Clear
2:55 AM 37.4 °F 32.8 °F 26.6 °F 65% 29.62 in 10.0 mi SSE 5.8 mph - N/A   Clear
3:15 AM 37.4 °F 33.8 °F 26.6 °F 65% 29.62 in 10.0 mi SSE 4.6 mph - N/A   Clear
3:35 AM 37.4 °F 31.4 °F 26.6 °F 65% 29.60 in 10.0 mi SSE 8.1 mph - N/A   Clear
3:55 AM 37.4 °F 31.4 °F 26.6 °F 65% 29.59 in 10.0 mi South 8.1 mph - N/A   Clear
4:15 AM 37.4 °F 31.4 °F 26.6 °F 65% 29.58 in 10.0 mi South 8.1 mph - N/A   Clear
4:35 AM 39.2 °F 34.2 °F 28.4 °F 65% 29.58 in 10.0 mi SSE 6.9 mph - N/A   Clear
4:55 AM 35.6 °F 29.9 °F 26.6 °F 70% 29.58 in 10.0 mi South 6.9 mph - N/A   Clear
5:15 AM 37.4 °F 32.1 °F 28.4 °F 70% 29.58 in 10.0 mi South 6.9 mph - N/A   Clear
5:35 AM 37.4 °F 32.1 °F 30.2 °F 75% 29.58 in 10.0 mi South 6.9 mph - N/A   Clear
5:55 AM 37.4 °F 32.1 °F 28.4 °F 70% 29.58 in 10.0 mi South 6.9 mph - N/A   Clear
6:55 AM 37.4 °F 31.4 °F 30.2 °F 75% 29.57 in 10.0 mi South 8.1 mph - N/A   Clear
7:15 AM 37.4 °F 31.4 °F 30.2 °F 75% 29.58 in 10.0 mi South 8.1 mph - N/A   Clear
7:35 AM 37.4 °F 30.8 °F 30.2 °F 75% 29.57 in 10.0 mi South 9.2 mph - N/A   Clear
7:55 AM 37.4 °F 29.8 °F 32.0 °F 81% 29.57 in 10.0 mi South 11.5 mph - N/A   Clear
8:15 AM 39.2 °F 31.6 °F 32.0 °F 75% 29.56 in 10.0 mi South 12.7 mph - N/A   Clear
8:35 AM 41.0 °F 34.7 °F 33.8 °F 76% 29.57 in 10.0 mi South 10.4 mph - N/A   Clear
8:55 AM 42.8 °F 36.6 °F 33.8 °F 70% 29.56 in 10.0 mi South 11.5 mph - N/A   Clear
9:15 AM 42.8 °F 36.2 °F 33.8 °F 70% 29.56 in 10.0 mi South 12.7 mph - N/A   Clear
9:35 AM 44.6 °F 37.2 °F 33.8 °F 66% 29.57 in 10.0 mi SSW 17.3 mph 20.7 mph N/A   Clear
9:55 AM 46.4 °F 39.8 °F 35.6 °F 66% 29.57 in 10.0 mi SSW 16.1 mph - N/A   Clear
10:15 AM 48.2 °F - 37.4 °F 66% 29.57 in 10.0 mi SSW 12.7 mph - N/A   Clear
10:35 AM 50.0 °F - 37.4 °F 62% 29.57 in 10.0 mi SSW 16.1 mph - N/A   Clear
10:55 AM 51.8 °F - 39.2 °F 62% 29.58 in 10.0 mi SSW 16.1 mph - N/A   Clear
11:15 AM 53.6 °F - 41.0 °F 62% 29.57 in 10.0 mi SSW 12.7 mph - N/A   Clear
11:35 AM 55.4 °F - 37.4 °F 51% 29.57 in 10.0 mi SW 11.5 mph - N/A   Clear
11:55 AM 55.4 °F - 37.4 °F 51% 29.56 in 10.0 mi SW 11.5 mph - N/A   Clear
12:15 PM 57.2 °F - 37.4 °F 48% 29.56 in 10.0 mi SSW 13.8 mph - N/A   Clear
12:35 PM 60.8 °F - 39.2 °F 45% 29.55 in 10.0 mi SSW 11.5 mph - N/A   Clear
12:55 PM 60.8 °F - 39.2 °F 45% 29.55 in 10.0 mi SSW 11.5 mph - N/A   Clear
1:35 PM 64.4 °F - 42.8 °F 45% 29.53 in 10.0 mi South 6.9 mph - N/A   Clear
1:55 PM 66.2 °F - 44.6 °F 46% 29.53 in 10.0 mi South 8.1 mph - N/A   Clear
2:15 PM 66.2 °F - 44.6 °F 46% 29.52 in 10.0 mi South 10.4 mph - N/A   Clear
2:35 PM 66.2 °F - 44.6 °F 46% 29.52 in 10.0 mi South 12.7 mph - N/A   Clear
2:55 PM 66.2 °F - 44.6 °F 46% 29.52 in 10.0 mi South 15.0 mph - N/A   Clear
3:15 PM 64.4 °F - 42.8 °F 45% 29.52 in 10.0 mi South 15.0 mph - N/A   Clear
3:35 PM 64.4 °F - 41.0 °F 42% 29.53 in 10.0 mi South 12.7 mph - N/A   Clear
4:15 PM 64.4 °F - 42.8 °F 45% 29.53 in 10.0 mi South 11.5 mph - N/A   Clear
4:35 PM 64.4 °F - 42.8 °F 45% 29.53 in 10.0 mi South 17.3 mph - N/A   Clear
4:55 PM 60.8 °F - 39.2 °F 45% 29.53 in 10.0 mi South 15.0 mph 20.7 mph N/A   Clear
5:15 PM 60.8 °F - 41.0 °F 48% 29.53 in 10.0 mi South 10.4 mph - N/A   Clear
5:35 PM 57.2 °F - 41.0 °F 55% 29.53 in 10.0 mi South 9.2 mph - N/A   Clear
5:55 PM 57.2 °F - 41.0 °F 55% 29.54 in 10.0 mi South 9.2 mph - N/A   Clear
6:55 PM 51.8 °F - 37.4 °F 58% 29.55 in 10.0 mi South 9.2 mph - N/A   Clear
7:35 PM 48.2 °F - 35.6 °F 62% 29.55 in 10.0 mi South 5.8 mph - N/A   Clear
7:55 PM 48.2 °F - 35.6 °F 62% 29.55 in 10.0 mi South 8.1 mph - N/A   Clear
8:15 PM 50.0 °F - 35.6 °F 58% 29.55 in 10.0 mi South 8.1 mph - N/A   Clear
8:35 PM 48.2 °F - 33.8 °F 58% 29.55 in 10.0 mi South 8.1 mph - N/A   Clear
9:15 PM 46.4 °F 41.1 °F 35.6 °F 66% 29.56 in 10.0 mi South 11.5 mph - N/A   Clear
9:35 PM 46.4 °F 41.9 °F 35.6 °F 66% 29.55 in 10.0 mi South 9.2 mph - N/A   Clear
9:55 PM 50.0 °F - 37.4 °F 62% 29.55 in 10.0 mi South 9.2 mph - N/A   Clear
10:15 PM 48.2 °F - 37.4 °F 66% 29.56 in 10.0 mi South 10.4 mph - N/A   Clear
10:55 PM 51.8 °F - 41.0 °F 67% 29.55 in 10.0 mi South 15.0 mph - N/A   Clear
11:15 PM 51.8 °F - 42.8 °F 71% 29.54 in 10.0 mi South 15.0 mph - N/A   Clear
11:35 PM 51.8 °F - 44.6 °F 76% 29.53 in 10.0 mi South 17.3 mph - N/A   Clear
11:55 PM 53.6 °F - 46.4 °F 77% 29.53 in 10.0 mi South 16.1 mph - N/A   Clear